Flag for Germany Weather past 2 weeks in Ostfildern, Baden-Württemberg, Germany

36 °F

Passing clouds.

Feels Like: 30 °F
Forecast: 35 / 46 °F
Wind: 7 mph from Southwest

Location: Stuttgart-Echterdingen

Current Time: Nov 28, 2015 at 5:50:08 PM

Latest Report: Nov 28, 2015 at 5:20 PM

Visibility: N/A

Pressure: 30.12 "Hg

Humidity: 87%

Dew point: 32 °F

Location of OstfildernLocation

Historic Weather in Ostfildern — Graph


Ostfildern temperature yesterday

Maximum temperature yesterday: 41 °F (at 12:50 PM)
Minimum temperature yesterday: 30 °F (at 8:20 PM)
Average temperature yesterday: 36 °F

Past Weeks' High & Low Weather Summary

High68 °F (Nov 16, 1:20 PM)100% (Nov 20, 7:50 AM)30.45 "Hg (Nov 20, 7:50 AM)
Low23 °F (Nov 24, 2:20 AM)23% (Nov 16, 1:20 PM)29.36 "Hg (Nov 21, 2:50 PM)
Average44 °F80%29.98 "Hg
* Reported Nov 13 4:20 PM — Nov 28 4:50 PM, Ostfildern, Weather by CustomWeather, © 2015

Note: Actual official high and low records may vary slightly from our data, if they occured in-between our weather recording intervals... More about our weather records


Ostfildern weather history for previous 24 hours

Time TempWeatherWind HumidityBarometerVisibility
4:50 PM
Sat, Nov 28
36 °FPassing clouds.8 mph87%30.09 "HgN/A
4:20 PM37 °FPartly sunny.12 mph87%30.09 "HgN/A
3:50 PM37 °FPartly sunny.7 mph93%30.07 "HgN/A
3:20 PM37 °FLight rain. Broken clouds.8 mph93%30.07 "HgN/A
2:50 PM39 °FLight rain. Broken clouds.13 mph93%30.04 "HgN/A
2:20 PM37 °FPartly sunny.9 mph93%30.04 "HgN/A
1:50 PM37 °FLight rain. Partly sunny.9 mph93%30.04 "HgN/A
1:20 PM37 °FLight rain. Partly sunny.8 mph93%30.01 "HgN/A
12:50 PM37 °FLight rain. Partly sunny.8 mph93%30.01 "HgN/A
12:20 PM37 °FLight rain. Partly sunny.8 mph93%29.98 "HgN/A
11:50 AM36 °FPartly sunny.6 mph93%29.98 "HgN/A
11:20 AM36 °FPartly sunny.8 mph93%29.98 "HgN/A
10:50 AM36 °FPartly sunny.8 mph93%29.95 "HgN/A
10:20 AM34 °FPartly sunny.10 mph93%29.95 "HgN/A
9:50 AM34 °FLight snow. Partly sunny.10 mph93%29.92 "Hg4 mi
9:20 AM34 °FSnow. Partly sunny.7 mph93%29.89 "Hg2 mi
8:50 AM34 °FSnow. Partly sunny.8 mph93%29.89 "Hg1 mi
8:20 AM34 °FLight snow. Partly sunny.7 mph87%29.89 "Hg4 mi
7:20 AM32 °FLight snow. Partly cloudy.5 mph93%29.86 "Hg5 mi
6:50 AM32 °FSnow. Passing clouds.9 mph93%29.86 "Hg1 mi
6:20 AM32 °FLight snow. Partly cloudy.8 mph87%29.86 "Hg3 mi
5:50 AM32 °FPassing clouds.5 mph80%29.86 "HgN/A
5:20 AM32 °FPassing clouds.3 mph80%29.86 "HgN/A
4:50 AM30 °FClear.6 mph86%29.89 "Hg10 mi
4:20 AM30 °FClear.1 mph86%29.89 "Hg10 mi
3:50 AM30 °FClear.1 mph86%29.89 "Hg10 mi
3:20 AM30 °FPassing clouds.3 mph86%29.89 "HgN/A
2:50 AM28 °FClear.2 mph86%29.92 "Hg10 mi
2:20 AM28 °FPassing clouds.2 mph86%29.92 "HgN/A
1:50 AM28 °FPassing clouds.3 mph86%29.92 "HgN/A
1:20 AM28 °FPassing clouds.3 mph86%29.92 "HgN/A
12:50 AM30 °FPassing clouds.2 mph86%29.92 "HgN/A
11:50 PM
Fri, Nov 27
30 °FPassing clouds.1 mph93%29.95 "HgN/A
11:20 PM30 °FPassing clouds.1 mph93%29.95 "HgN/A
10:50 PM30 °FPassing clouds.1 mph93%29.95 "HgN/A
10:20 PM30 °FPassing clouds.3 mph93%29.95 "HgN/A
9:50 PM30 °FPassing clouds.2 mph93%29.98 "HgN/A
9:20 PM30 °FPassing clouds.1 mph93%29.98 "HgN/A
8:50 PM30 °FClear.1 mph86%29.98 "Hg10 mi
8:20 PM30 °FPassing clouds.2 mph93%29.98 "HgN/A
7:50 PM32 °FPassing clouds.1 mph80%29.98 "HgN/A
7:20 PM34 °FPassing clouds.No wind81%29.98 "HgN/A
6:50 PM34 °FPassing clouds.1 mph81%29.98 "HgN/A
6:20 PM34 °FPassing clouds.2 mph81%29.98 "HgN/A
5:50 PM36 °FPassing clouds.5 mph81%29.98 "HgN/A
5:20 PM36 °FPassing clouds.5 mph81%30.01 "HgN/A
Weather by CustomWeather, © 2015

See weather overviewHow to use our weather pages